Location: Unspecified
(49.2170°N, 0.0000°E)
Time: 09:16:30
(UTC+00:00)

Transit 2A - Pass Details

Date: 26 June 2019
Orbit: 594 x 964 km, 66.7° (Epoch: 19 July)

Event Time Altitude Azimuth Distance (km) Brightness Sun altitude
Rises 06:51:17 0° 324° (NW) 3,507 9.2 25.2°
Reaches altitude 10° 06:54:02 10° 331° (NNW) 2,511 8.5 25.7°
Maximum altitude 06:59:33 44° 43° (NE) 1,109 7.9 26.6°
Drops below altitude 10° 07:04:30 10° 115° (ESE) 2,258 9.6 27.4°
Sets 07:06:51 0° 122° (ESE) 3,119 9.9 27.8°
